• Em Portugal
  • Lista de países
  • Para 7 dias
  • Temperatura da água
  • Mapas de satélite
  • Mapa do tempo
  • Widgets de tempo
  • user-avatar
    Iniciar Sessão

    Previsão horária em Hrazdan

    Hoje, 18 Julho, Quarta-feira

    Tempo Temperatura Precipitação Vento Pressão Humidade
    00:00 +12°C° 0 mm 2 m/s 611 mmHg 83%
    01:00 +12°C° 0 mm 2 m/s 610 mmHg 82%
    02:00 +12°C° 0 mm 1 m/s 610 mmHg 81%
    03:00 +12°C° 0 mm 1 m/s 610 mmHg 81%
    04:00 +13°C° 0 mm 1 m/s 610 mmHg 80%
    05:00 +13°C° 0 mm 1 m/s 610 mmHg 78%
    06:00 +14°C° 0 mm 1 m/s 611 mmHg 77%
    07:00 +16°C° 0 mm 1 m/s 611 mmHg 69%
    08:00 +19°C° 0 mm 1 m/s 612 mmHg 61%
    09:00 +20°C° 0 mm 2 m/s 612 mmHg 54%
    10:00 +23°C° 0 mm 2 m/s 613 mmHg 52%
    11:00 +24°C° 0 mm 2 m/s 613 mmHg 49%
    12:00 +25°C° 0 mm 2 m/s 613 mmHg 46%
    13:00 +25°C° 0,2 mm 3 m/s 613 mmHg 46%
    14:00 +26°C° 0,2 mm 3 m/s 612 mmHg 46%
    15:00 +26°C° 0,2 mm 3 m/s 612 mmHg 46%
    16:00 +25°C° 0,5 mm 3 m/s 612 mmHg 51%
    17:00 +24°C° 0,5 mm 2 m/s 611 mmHg 56%
    18:00 +23°C° 0,5 mm 2 m/s 611 mmHg 60%
    19:00 +20°C° 0,2 mm 2 m/s 611 mmHg 66%
    20:00 +19°C° 0,2 mm 2 m/s 610 mmHg 72%
    21:00 +17°C° 0,2 mm 2 m/s 610 mmHg 78%
    22:00 +16°C° 0 mm 2 m/s 610 mmHg 79%
    23:00 +16°C° 0 mm 2 m/s 610 mmHg 80%

    Amanhã, 19 Julho, Quinta-feira

    Tempo Temperatura Precipitação Vento Pressão Humidade
    00:00 +15°C° 0 mm 2 m/s 610 mmHg 80%
    01:00 +15°C° 0 mm 2 m/s 609 mmHg 81%
    02:00 +14°C° 0 mm 2 m/s 609 mmHg 82%
    03:00 +14°C° 0 mm 2 m/s 609 mmHg 82%
    04:00 +15°C° 0 mm 1 m/s 610 mmHg 80%
    05:00 +15°C° 0 mm 1 m/s 610 mmHg 79%
    06:00 +16°C° 0 mm 1 m/s 610 mmHg 77%
    07:00 +19°C° 0 mm 1 m/s 611 mmHg 67%
    08:00 +21°C° 0 mm 1 m/s 611 mmHg 58%
    09:00 +24°C° 0 mm 2 m/s 612 mmHg 49%
    10:00 +25°C° 0 mm 2 m/s 612 mmHg 44%
    11:00 +26°C° 0 mm 2 m/s 613 mmHg 40%
    12:00 +28°C° 0 mm 3 m/s 613 mmHg 35%
    13:00 +28°C° 0 mm 3 m/s 613 mmHg 35%
    14:00 +28°C° 0 mm 3 m/s 613 mmHg 35%
    15:00 +29°C° 0 mm 3 m/s 612 mmHg 34%
    16:00 +28°C° 0,1 mm 3 m/s 612 mmHg 40%
    17:00 +27°C° 0,1 mm 2 m/s 612 mmHg 46%
    18:00 +26°C° 0,1 mm 2 m/s 611 mmHg 51%
    19:00 +23°C° 0,2 mm 2 m/s 611 mmHg 59%
    20:00 +20°C° 0,2 mm 2 m/s 611 mmHg 67%
    21:00 +18°C° 0,2 mm 3 m/s 610 mmHg 75%
    22:00 +17°C° 0 mm 2 m/s 610 mmHg 76%
    23:00 +17°C° 0 mm 2 m/s 610 mmHg 77%

    Depois de amanhã, 20 Julho, Sexta-feira

    Tempo Temperatura Precipitação Vento Pressão Humidade
    00:00 +16°C° 0 mm 2 m/s 610 mmHg 78%
    01:00 +16°C° 0 mm 2 m/s 610 mmHg 77%
    02:00 +16°C° 0 mm 2 m/s 610 mmHg 77%
    03:00 +15°C° 0 mm 2 m/s 610 mmHg 76%
    04:00 +16°C° 0 mm 2 m/s 610 mmHg 74%
    05:00 +16°C° 0 mm 1 m/s 610 mmHg 72%
    06:00 +18°C° 0 mm 1 m/s 610 mmHg 70%
    07:00 +20°C° 0 mm 1 m/s 611 mmHg 61%
    08:00 +23°C° 0 mm 1 m/s 612 mmHg 51%
    09:00 +25°C° 0 mm 2 m/s 612 mmHg 42%
    10:00 +26°C° 0 mm 2 m/s 612 mmHg 39%
    11:00 +27°C° 0 mm 2 m/s 613 mmHg 36%
    12:00 +28°C° 0 mm 3 m/s 613 mmHg 33%
    13:00 +29°C° 0 mm 3 m/s 612 mmHg 33%
    14:00 +29°C° 0 mm 3 m/s 612 mmHg 33%
    15:00 +29°C° 0 mm 3 m/s 612 mmHg 34%
    16:00 +28°C° 0,5 mm 3 m/s 612 mmHg 39%
    17:00 +27°C° 0,5 mm 3 m/s 611 mmHg 45%
    18:00 +26°C° 0,5 mm 2 m/s 611 mmHg 50%
    19:00 +24°C° 0,2 mm 2 m/s 610 mmHg 57%
    20:00 +21°C° 0,2 mm 2 m/s 610 mmHg 64%
    21:00 +18°C° 0,2 mm 2 m/s 610 mmHg 71%
    22:00 +18°C° 0 mm 2 m/s 610 mmHg 72%
    23:00 +17°C° 0 mm 2 m/s 610 mmHg 72%

    21 Julho, Sábado

    Tempo Temperatura Precipitação Vento Pressão Humidade
    00:00 +16°C° 0 mm 2 m/s 610 mmHg 73%
    01:00 +16°C° 0 mm 2 m/s 610 mmHg 74%
    02:00 +15°C° 0 mm 2 m/s 610 mmHg 74%
    03:00 +15°C° 0 mm 2 m/s 609 mmHg 75%
    04:00 +15°C° 0 mm 2 m/s 610 mmHg 74%
    05:00 +15°C° 0 mm 2 m/s 610 mmHg 73%
    06:00 +16°C° 0 mm 2 m/s 610 mmHg 72%
    07:00 +18°C° 0 mm 2 m/s 611 mmHg 66%
    08:00 +20°C° 0 mm 2 m/s 612 mmHg 60%
    09:00 +23°C° 0 mm 2 m/s 612 mmHg 55%
    10:00 +24°C° 0,1 mm 2 m/s 613 mmHg 51%
    11:00 +25°C° 0,1 mm 2 m/s 613 mmHg 47%
    12:00 +27°C° 0,1 mm 2 m/s 613 mmHg 44%
    13:00 +27°C° 0,2 mm 3 m/s 613 mmHg 44%
    14:00 +27°C° 0,2 mm 3 m/s 613 mmHg 44%
    15:00 +27°C° 0,2 mm 3 m/s 612 mmHg 43%
    16:00 +26°C° 0,2 mm 3 m/s 612 mmHg 48%
    17:00 +25°C° 0,2 mm 3 m/s 612 mmHg 53%
    18:00 +24°C° 0,2 mm 3 m/s 612 mmHg 58%
    19:00 +21°C° 0,4 mm 3 m/s 611 mmHg 64%
    20:00 +19°C° 0,4 mm 3 m/s 611 mmHg 70%
    21:00 +17°C° 0,4 mm 3 m/s 611 mmHg 76%
    22:00 +17°C° 0,2 mm 3 m/s 611 mmHg 78%
    23:00 +16°C° 0,2 mm 2 m/s 611 mmHg 80%

    22 Julho, Domingo

    Tempo Temperatura Precipitação Vento Pressão Humidade
    00:00 +16°C° 0,2 mm 2 m/s 611 mmHg 82%
    01:00 +15°C° 0,2 mm 2 m/s 611 mmHg 83%
    02:00 +15°C° 0,2 mm 2 m/s 611 mmHg 85%
    03:00 +14°C° 0,2 mm 2 m/s 610 mmHg 87%
    04:00 +15°C° 0 mm 2 m/s 611 mmHg 86%
    05:00 +15°C° 0 mm 2 m/s 611 mmHg 85%
    06:00 +16°C° 0 mm 2 m/s 611 mmHg 84%
    07:00 +17°C° 0 mm 2 m/s 612 mmHg 77%
    08:00 +19°C° 0 mm 2 m/s 612 mmHg 70%
    09:00 +21°C° 0 mm 2 m/s 613 mmHg 62%
    10:00 +23°C° 0,1 mm 2 m/s 613 mmHg 58%
    11:00 +25°C° 0,1 mm 2 m/s 613 mmHg 54%
    12:00 +26°C° 0,1 mm 3 m/s 613 mmHg 49%
    13:00 +26°C° 0,4 mm 3 m/s 613 mmHg 49%
    14:00 +26°C° 0,4 mm 3 m/s 612 mmHg 48%
    15:00 +26°C° 0,4 mm 3 m/s 612 mmHg 48%
    16:00 +26°C° 0,6 mm 3 m/s 612 mmHg 51%
    17:00 +25°C° 0,6 mm 3 m/s 612 mmHg 55%
    18:00 +24°C° 0,6 mm 3 m/s 611 mmHg 59%
    19:00 +21°C° 0,5 mm 3 m/s 611 mmHg 65%
    20:00 +19°C° 0,5 mm 3 m/s 611 mmHg 70%
    21:00 +18°C° 0,5 mm 2 m/s 611 mmHg 76%
    22:00 +17°C° 0,2 mm 2 m/s 611 mmHg 78%
    23:00 +17°C° 0,2 mm 2 m/s 611 mmHg 79%

    23 Julho, Segunda-feira

    Tempo Temperatura Precipitação Vento Pressão Humidade
    00:00 +16°C° 0,2 mm 2 m/s 611 mmHg 81%
    01:00 +16°C° 0,1 mm 2 m/s 611 mmHg 82%
    02:00 +15°C° 0,1 mm 2 m/s 610 mmHg 84%
    03:00 +15°C° 0,1 mm 2 m/s 610 mmHg 85%
    04:00 +15°C° 0 mm 2 m/s 610 mmHg 84%
    05:00 +15°C° 0 mm 2 m/s 611 mmHg 82%
    06:00 +16°C° 0 mm 2 m/s 611 mmHg 81%
    07:00 +18°C° 0 mm 2 m/s 611 mmHg 72%
    08:00 +20°C° 0 mm 2 m/s 612 mmHg 64%
    09:00 +23°C° 0 mm 2 m/s 612 mmHg 56%
    10:00 +24°C° 0 mm 2 m/s 612 mmHg 52%
    11:00 +25°C° 0 mm 2 m/s 612 mmHg 48%
    12:00 +27°C° 0 mm 3 m/s 612 mmHg 44%
    13:00 +27°C° 0,3 mm 3 m/s 612 mmHg 44%
    14:00 +27°C° 0,3 mm 3 m/s 612 mmHg 44%
    15:00 +27°C° 0,3 mm 3 m/s 612 mmHg 43%
    16:00 +27°C° 0,2 mm 3 m/s 612 mmHg 47%
    17:00 +26°C° 0,2 mm 3 m/s 611 mmHg 51%
    18:00 +25°C° 0,2 mm 3 m/s 611 mmHg 55%
    19:00 +23°C° 0,1 mm 2 m/s 611 mmHg 59%
    20:00 +20°C° 0,1 mm 2 m/s 611 mmHg 64%
    21:00 +18°C° 0,1 mm 2 m/s 611 mmHg 69%
    22:00 +18°C° 0 mm 2 m/s 611 mmHg 70%
    23:00 +17°C° 0 mm 2 m/s 611 mmHg 70%
    Mostrar mais